Location: Ostrava
(49.8330°N, 18.2830°E)
Time: 19:07:38
(UTC+01:00)

Iridium 7 - Visible Passes

Search period start: 19 February 2018 00:00
Search period end: 01 March 2018 00:00
Orbit: 776 x 779 km, 86.4° (Epoch: 18 February)

Date Brightness Start Highest point End Pass type
(mag) Time Alt. Az. Time Alt. Az. Time Alt. Az.
19 Feb 8.2 02:50:37 10° ESE 02:53:28 15° ENE 02:56:20 10° NE visible
19 Feb 5.4 04:28:13 10° S 04:33:26 86° W 04:38:41 10° N visible
19 Feb 7.1 06:12:18 10° W 06:15:01 14° WNW 06:17:44 10° NW visible
20 Feb 6.1 03:56:14 19° SSE 03:59:56 56° E 04:05:03 10° NNE visible
20 Feb 6.6 05:36:57 10° SW 05:41:02 23° WNW 05:45:10 10° NNW visible
21 Feb 7.0 03:23:50 21° SE 03:26:32 33° E 03:31:11 10° NNE visible
21 Feb 6.0 05:04:22 21° SW 05:07:12 37° WNW 05:12:03 10° N visible
22 Feb 7.8 02:51:09 16° ESE 02:53:16 20° ENE 02:57:01 10° NNE visible
22 Feb 5.4 04:31:40 39° SSW 04:33:30 63° W 04:38:41 10° N visible
22 Feb 7.4 06:14:51 10° WNW 06:15:22 10° WNW 06:15:53 10° WNW visible
23 Feb 8.4 02:18:17 10° E 02:20:07 12° ENE 02:22:03 10° NE visible
23 Feb 5.5 03:58:47 55° SSE 03:59:54 78° E 04:05:09 10° N visible
23 Feb 6.9 05:39:17 14° W 05:41:18 17° WNW 05:44:42 10° NNW visible
24 Feb 6.4 03:25:47 43° ESE 03:26:27 46° E 03:31:24 10° NNE visible
24 Feb 6.4 05:06:17 26° W 05:07:22 28° WNW 05:11:51 10° NNW visible
25 Feb 7.3 02:52:43 27° E 02:53:06 27° E 02:57:27 10° NNE visible
25 Feb 5.7 04:33:12 45° W 04:33:35 46° W 04:38:37 10° N visible
26 Feb 8.0 02:19:35 17° E 02:19:53 17° ENE 02:23:05 10° NE visible
26 Feb 5.4 04:00:04 77° WNW 04:00:04 77° WNW 04:05:11 10° N visible
26 Feb 7.2 05:40:34 12° WNW 05:41:37 13° WNW 05:43:52 10° NW visible
27 Feb 6.0 03:26:53 60° ENE 03:26:53 60° ENE 03:31:34 10° N visible
27 Feb 6.7 05:07:23 21° WNW 05:07:36 21° WNW 05:11:31 10° NNW visible
28 Feb 6.9 02:53:39 35° ENE 02:53:39 35° ENE 02:57:45 10° NNE visible
28 Feb 6.2 04:34:08 33° WNW 04:34:08 33° WNW 04:38:28 10° NNW visible
